This is the latest recevied weather packets stored in our database for station/object KD0SBN-3. If no packets are shown the sender has not sent any weather packets the latest 10 day(s).
| Time | Temp. | Humidity | Pressure | Rain* | Wind** | Luminosity | Snow |
|---|---|---|---|---|---|---|---|
| 1777908976 | 10.56° C | 40% | 1022.4 hPa | 0 mm | - | 259 W/m² | - |
| 1777908674 | 10.56° C | 40% | 1022.6 hPa | 0 mm | - | 229 W/m² | - |
| 1777908370 | 10.56° C | 41% | 1022.4 hPa | 0 mm | - | 232 W/m² | - |
| 1777908066 | 10.56° C | 42% | 1022.6 hPa | 0 mm | - | 221 W/m² | - |
| 1777907762 | 10.56° C | 41% | 1022.4 hPa | 0 mm | - | 241 W/m² | - |
| 1777907457 | 11.11° C | 40% | 1022.8 hPa | 0 mm | - | 238 W/m² | - |
| 1777907154 | 11.67° C | 41% | 1022.8 hPa | 0 mm | - | 267 W/m² | - |
| 1777906852 | 11.11° C | 41% | 1022.8 hPa | 0 mm | - | 219 W/m² | - |
| 1777906549 | 10.56° C | 40% | 1022.4 hPa | 0 mm | - | 270 W/m² | - |
| 1777906244 | 10.56° C | 41% | 1022.6 hPa | 0 mm | - | 249 W/m² | - |
| 1777905941 | 10.56° C | 41% | 1022.5 hPa | 0 mm | - | 243 W/m² | - |
| 1777905638 | 10.56° C | 41% | 1022.6 hPa | 0 mm | - | 214 W/m² | - |
| 1777905335 | 10.56° C | 42% | 1022.5 hPa | 0 mm | - | 229 W/m² | - |
| 1777905033 | 10.56° C | 41% | 1022.6 hPa | 0 mm | - | 192 W/m² | - |
| 1777904730 | 10.56° C | 41% | 1022.4 hPa | 0 mm | - | 178 W/m² | - |
| 1777904427 | 10° C | 41% | 1022.8 hPa | 0 mm | - | 163 W/m² | - |
| 1777904123 | 10° C | 41% | 1022.5 hPa | 0 mm | - | 149 W/m² | - |
| 1777903820 | 10° C | 41% | 1022.6 hPa | 0 mm | - | 134 W/m² | - |
| 1777903517 | 10° C | 40% | 1022.8 hPa | 0 mm | - | 125 W/m² | - |
| 1777903213 | 10° C | 41% | 1022.6 hPa | 0 mm | - | 116 W/m² | - |
| 1777902909 | 9.44° C | 43% | 1022.6 hPa | 0 mm | - | 107 W/m² | - |
| 1777902606 | 9.44° C | 42% | 1022.5 hPa | 0 mm | - | 102 W/m² | - |
| 1777902304 | 9.44° C | 41% | 1022.4 hPa | 0 mm | - | 104 W/m² | - |
| 1777902001 | 8.89° C | 46% | 1022.4 hPa | 0 mm | - | 96 W/m² | - |
| 1777901699 | 9.44° C | 46% | 1022.5 hPa | 0 mm | - | 92 W/m² | - |
* Rain latest hour (hover to see other rain measurements)
** Current wind speed in m/s (hover to see current wind gust speed)